Flag for Switzerland Weather past 2 weeks in Onex, Geneva, Switzerland

Now
34 °F

Clear.


Feels Like: 34 °F
Forecast: 28 / 50 °F
Wind: 2 mph from North

Location: Geneva Cointrin Airport

Current Time: Dec 22, 2014 at 9:13:59 PM

Latest Report: Dec 22, 2014 at 8:50 PM


Visibility: 10 mi

Pressure: 30.42 "Hg

Humidity: 87%

Dew point: 30 °F

Location of OnexLocation

Historic Weather in Onex — Graph

°F

Onex temperature yesterday

Maximum temperature yesterday: 46 °F (at 12:20 PM)
Minimum temperature yesterday: 30 °F (at 4:20 AM)
Average temperature yesterday: 37 °F

Past Weeks' High & Low Weather Summary

 TemperatureHumidityPressure
High57 °F (Dec 19, 1:20 PM)100% (Dec 9, 12:20 AM)30.57 "Hg (Dec 9, 12:20 AM)
Low27 °F (Dec 10, 4:50 AM)47% (Dec 13, 1:20 PM)29.89 "Hg (Dec 13, 1:50 AM)
Average42 °F83%30.19 "Hg
* Reported Dec 7 7:20 PM — Dec 22 7:50 PM, Onex, Weather by CustomWeather, © 2014

Note: Actual official high and low records may vary slightly from our data, if they occured in-between our weather recording intervals... More about our weather records

Advertising

Onex weather history for previous 24 hours

 ConditionsComfort  
Time TempWeatherWind HumidityBarometerVisibility
7:50 PM
Dec 22
36 °FClear.1 mph87%30.42 "Hg10 mi
7:20 PM37 °FClear.2 mph81%30.42 "Hg10 mi
6:50 PM41 °FClear.3 mph70%30.42 "Hg10 mi
6:20 PM41 °FClear.1 mph70%30.42 "Hg10 mi
5:50 PM43 °FClear.2 mph71%30.42 "Hg10 mi
5:20 PM45 °FClear.2 mph66%30.39 "Hg10 mi
4:50 PM46 °FSunny.2 mph62%30.39 "Hg10 mi
4:20 PM48 °FSunny.5 mph58%30.42 "Hg10 mi
3:50 PM50 °FSunny.6 mph54%30.39 "Hg10 mi
3:20 PM50 °FPassing clouds.3 mph54%30.42 "HgN/A
2:50 PM50 °FSunny.6 mph54%30.42 "Hg10 mi
2:20 PM48 °FPassing clouds.5 mph58%30.42 "HgN/A
1:50 PM48 °FPassing clouds.3 mph54%30.42 "HgN/A
1:20 PM46 °FSunny.5 mph57%30.45 "Hg10 mi
12:50 PM45 °FPassing clouds.5 mph61%30.45 "HgN/A
12:20 PM45 °FSunny.6 mph66%30.48 "Hg10 mi
11:50 AM43 °FSunny.3 mph71%30.48 "Hg10 mi
11:20 AM41 °FSunny.5 mph70%30.48 "Hg10 mi
10:50 AM39 °FSunny.3 mph75%30.48 "Hg10 mi
10:20 AM37 °FSunny.3 mph81%30.48 "Hg10 mi
9:50 AM36 °FSunny.5 mph87%30.48 "Hg10 mi
9:20 AM30 °FSunny.6 mph100%30.48 "Hg10 mi
8:50 AM30 °FSunny.2 mph93%30.48 "Hg10 mi
8:20 AM28 °FSunny.2 mph100%30.48 "Hg10 mi
7:50 AM28 °FClear.3 mph100%30.48 "Hg10 mi
7:20 AM28 °FClear.2 mph100%30.48 "Hg10 mi
6:50 AM27 °FClear.3 mph100%30.48 "Hg10 mi
6:20 AM28 °FClear.3 mph100%30.48 "Hg10 mi
5:50 AM27 °FClear.1 mph100%30.48 "Hg10 mi
5:20 AM27 °FClear.2 mph100%30.48 "Hg10 mi
4:50 AM27 °FClear.3 mph100%30.48 "Hg10 mi
4:20 AM28 °FClear.2 mph100%30.51 "Hg10 mi
3:50 AM28 °FClear.1 mph100%30.51 "Hg10 mi
3:20 AM28 °FClear.1 mph100%30.51 "Hg10 mi
2:50 AM28 °FClear.3 mph100%30.51 "Hg10 mi
1:50 AM28 °FClear.3 mph100%30.51 "Hg10 mi
1:20 AM28 °FClear.2 mph100%30.51 "Hg10 mi
12:50 AM30 °FClear.3 mph100%30.54 "Hg10 mi
12:20 AM30 °FClear.3 mph100%30.54 "Hg10 mi
11:50 PM
Dec 21
30 °FClear.1 mph100%30.54 "Hg10 mi
11:20 PM30 °FClear.2 mph100%30.54 "Hg10 mi
10:20 PM32 °FClear.1 mph93%30.54 "Hg10 mi
9:50 PM32 °FClear.2 mph93%30.54 "Hg10 mi
9:20 PM32 °FClear.2 mph100%30.54 "Hg10 mi
Weather by CustomWeather, © 2014

See weather overviewHow to use our weather pages